Weather History for Ft Lauderdale, FL

Change the Weather History Date:

Saturday, November 5, 2011

  Actual Average Record
Temperature  
Mean Temperature 69 °F 77 °F  
Max Temperature 80 °F 83 °F 90 °F (2002)
Min Temperature 58 °F 71 °F 44 °F (1930)
Degree Days  
Heating Degree Days 0 0  
Month to date heating degree days 0 0  
Since 1 July heating degree days 0 0  
Cooling Degree Days 4 12  
Month to date cooling degree days 46 63  
Year to date cooling degree days 4321 4257  
Growing Degree Days 19 (Base 50)    
Moisture  
Dew Point 58 °F    
Average Humidity 74    
Maximum Humidity 93    
Minimum Humidity 54    
Precipitation  
Precipitation 0.01 in 0.15 in 4.71 in (1998)
Month to date precipitation 0.01 0.79  
Year to date precipitation 38.88 57.27  
Snow  
Snow 0.00 in - - ()
Month to date snowfall 0.0  
Since 1 July snowfall 0.0  
Since 1 September snowfall 0.0  
Snow Depth 0.00 in    
Sea Level Pressure  
Sea Level Pressure 29.95 in    
Wind  
Wind Speed 13 mph (North)    
Max Wind Speed 29 mph    
Max Gust Speed 35 mph    
Visibility 10 miles    
Events      
T = Trace of Precipitation, MM = Missing Value Source: NWS Daily Summary

Daily Weather History Graph

Daily Weather History Graph

Search for Another Location

Airport:

Trip Planner

Search our weather history database for the weather conditions in past years. The results will help you decide how hot, cold, wet, or windy it might be!

Date:

Astronomy

Nov. 05, 2011 Rise Set
Actual Time 7:31 AM EDT 6:36 PM EDT
Civil Twilight 7:07 AM EDT 7:00 PM EDT
Nautical Twilight 6:40 AM EDT 7:27 PM EDT
Astronomical Twilight 6:13 AM EDT 7:54 PM EDT
Moon 3:31 PM EDT (11/5) 3:05 AM EDT (11/5)
Length of Visible Light 11h 52m
Length of Day
11h 04m
Waxing Gibbous, 78% of the Moon is Illuminated
Nov 5
Waxing Gibbous
Nov 10
Full
Nov 18
Last Quarter
Nov 25
New
Dec 2
First Quarter

Hourly Weather History & Observations

Time (EDT) Temp. Dew Point Humidity Pressure Visibility Wind Dir Wind Speed Gust Speed Precip Events Conditions
12:53 AM 63.0 °F 52.0 °F 67% 29.93 in 10.0 mi NNW 15.0 mph - N/A   Clear
1:53 AM 61.0 °F 51.1 °F 70% 29.93 in 10.0 mi NNW 10.4 mph - N/A   Clear
2:53 AM 60.1 °F 51.1 °F 72% 29.92 in 10.0 mi NW 11.5 mph - N/A   Clear
3:53 AM 60.1 °F 51.1 °F 72% 29.91 in 10.0 mi NNW 13.8 mph - N/A   Clear
4:53 AM 59.0 °F 51.1 °F 75% 29.91 in 10.0 mi NNW 10.4 mph - N/A   Clear
5:53 AM 59.0 °F 50.0 °F 72% 29.92 in 10.0 mi NNW 12.7 mph - N/A   Clear
6:53 AM 59.0 °F 50.0 °F 72% 29.94 in 10.0 mi NNW 9.2 mph - N/A   Clear
7:53 AM 59.0 °F 50.0 °F 72% 29.95 in 10.0 mi NW 10.4 mph - N/A   Clear
8:53 AM 62.1 °F 52.0 °F 70% 29.96 in 10.0 mi NNW 11.5 mph - N/A   Clear
9:53 AM 66.9 °F 54.0 °F 63% 29.97 in 10.0 mi NNW 12.7 mph - N/A   Clear
10:53 AM 71.1 °F 55.9 °F 59% 29.98 in 10.0 mi North 11.5 mph - N/A   Clear
11:53 AM 73.0 °F 57.0 °F 57% 29.97 in 10.0 mi NW 8.1 mph - N/A   Partly Cloudy
12:53 PM 77.0 °F 59.0 °F 54% 29.95 in 10.0 mi North 9.2 mph - N/A   Partly Cloudy
1:53 PM 77.0 °F 59.0 °F 54% 29.94 in 10.0 mi NNE 3.5 mph 17.3 mph N/A   Mostly Cloudy
2:53 PM 78.1 °F 61.0 °F 56% 29.92 in 10.0 mi North 13.8 mph - N/A   Mostly Cloudy
3:53 PM 78.1 °F 62.1 °F 58% 29.92 in 10.0 mi NNE 19.6 mph 26.5 mph N/A   Mostly Cloudy
4:53 PM 79.0 °F 62.1 °F 56% 29.93 in 10.0 mi NE 16.1 mph 25.3 mph N/A   Scattered Clouds
5:53 PM 77.0 °F 62.1 °F 60% 29.94 in 10.0 mi NE 21.9 mph 27.6 mph N/A   Mostly Cloudy
6:53 PM 75.9 °F 63.0 °F 64% 29.95 in 10.0 mi NNE 19.6 mph 23.0 mph N/A   Scattered Clouds
7:53 PM 75.0 °F 63.0 °F 66% 29.96 in 10.0 mi NNE 15.0 mph - N/A   Partly Cloudy
8:53 PM 71.1 °F 66.0 °F 84% 29.99 in 7.0 mi North 11.5 mph - 0.00 in   Mostly Cloudy
9:53 PM 70.0 °F 66.0 °F 87% 29.99 in 10.0 mi North 9.2 mph - 0.00 in   Scattered Clouds
10:53 PM 72.0 °F 70.0 °F 93% 30.00 in 10.0 mi ENE 12.7 mph - 0.01 in   Mostly Cloudy
11:00 PM 73.4 °F 69.8 °F 88% 30.00 in 10.0 mi NE 9.2 mph - N/A   Overcast
11:53 PM 73.0 °F 64.9 °F 76% 29.99 in 10.0 mi East 11.5 mph 23.0 mph N/A   Mostly Cloudy